Tracking 33446 objects as of 10-Mar-2026
HD Live streaming from Space Station
objects crossing your sky now

STARLINK-35740

Track STARLINK-35740 now!
10-day predictions
STARLINK-35740 is classified as:


NORAD ID: 66210
Int'l Code: 2025-244E
Perigee: 481.5 km
Apogee: 483.0 km
Inclination: 53.2 °
Period: 94.1 minutes
Semi major axis: 6853 km
RCS: Unknown
Launch date: October 28, 2025
Source: United States (US)
Launch site: AIR FORCE WESTERN TEST RANGE (AFWTR)
Your satellite tracking list
Your tracking list is empty




NASA's NSSDC Master Catalog

Two Line Element Set (TLE):
1 66210U 25244E   26069.15254619  .00016720  00000-0  57468-3 0  9997
2 66210  53.1592 227.5333 0001047  90.9071 269.2050 15.30239039 21737
Source of the keplerian elements: AFSPC